DELTA 1 DEB, 10750

Orbit data source: Space-Track

DELTA 1 DEB, 10750 is space debris in SSO originally from a launch on Thu, 29 Jul 1976 UTC launched from the Air Force Western Test Range (AFWTR). Debris objects in space refer to the collection of defunct objects orbiting the Earth. Examples of debris include non-operational satellites, rocket bodies, and fragments generated from explosions, collisions, or faulty payload assembly.

Loading next visibility...
Identifier
10750, 1976-077AX
Orbit
SSO
Country
Flag of USUS
Related business
Manufacturer
Unknown
Mission
Spacecraft
Bus & Motor
Unknown
Mass
Unknown
Launch date (UTC)
1976-07-29 (49 years ago)
Launch vehicle
Unknown
Launch site
Air Force Western Test Range (AFWTR)
Object type
Payload
Rocket body
Debris
Shape & HBR
Unknown shape, 0.1 m
Radar Cross Section
Small (<0.1 m²)

Expand to show TLE details & history
Last TLE update: 1 day ago

TLE from 1 day ago
0 DELTA 1 DEB
1 10750U 76077AX  25290.98911051  .00012997  00000-0  84621-2 0  9993
2 10750 101.6660 193.1408 0384630 358.8868   1.1381 13.71962159332355
Epoch: 2025-10-17T23:44Z
TLE epoch observation values (Epoch: 2025-10-17T23:44:19.148Z)
Latitude
-0.00002°
Longitude
170.33445°
Altitude
711.792 km
Speed
7.643 km/s
True Right ascension
12h 52m 33s
True Declination
0° 00' 00"
Sunlit
Object was in daylight at epoch
Visualization orbit readout
Latitude
Unknown
Longitude
Unknown
Altitude
Unknown
Speed
Unknown
Apparent Right ascension
Unknown
Apparent Declination
Unknown
Sunlit
N/A
Visualization observer readout
Local Sidereal Time
18:08:49
Azimuth
Unknown
Elevation
Unknown
Doppler factor
Unknown
Orbital elements
Apogee altitude
1,273.311 km
Perigee altitude
706.516 km
Semi-major axis
7,368.05 km
Eccentricity
0.03846
Inclination
101.666°
RAAN
193.1408°
Arg. of periapsis
358.8868°
True anomaly
1.23005°
Mean anomaly
1.1381°
Eccentric anomaly
1.18362°
Mean motion
3.43174 °/min
Orbital period
104.9 mins
BSTAR
0.0084621
Loading maneuver chart data...
Computing Atmospheric mass density...
Loading historical data...
Loading historical data...
Loading historical data...
Loading historical data...
Loading historical data...
Loading historical data...
Loading historical data...

Documentation

Showing up to 5 results
|